Lapse_Rate
6.3 6.2 6.2 6.2 6.2 6.2 6.2 6.2 6.3 6.3 6.5 6.6 6.7 6.9 7.0 7.1 7.3 7.6 7.9 7.9 7.7 8.0 8.2 8.5 8.2 8.3 8.4 8.7 8.7 8.9 8.5 8.0 7.7 8.2 7.9 7.7 7.8 7.6 7.1 7.3 6.4 6.0 5.9 6.0 5.6
6.1 6.1 6.0 5.8 5.9 5.9 5.9 6.0 6.0 6.0 6.0 6.2 6.3 6.6 6.9 7.0 7.2 7.7 8.1 7.7 7.7 7.9 8.1 8.3 8.5 8.4 8.6 8.7 8.9 8.8 8.4 8.3 7.8 8.3 8.4 7.8 7.7 7.6 7.4 7.4 6.9 6.7 6.3 6.1 5.8
5.8 5.8 5.9 5.8 5.6 5.7 5.7 5.7 5.7 5.7 5.7 5.8 5.9 6.2 6.5 6.9 7.2 7.3 7.2 7.5 7.8 8.0 8.2 8.5 8.4 8.2 8.2 8.6 8.8 8.5 8.8 8.6 8.0 8.2 8.1 7.9 7.4 7.3 7.3 7.5 6.8 7.1 7.0 6.5 6.1
5.9 5.7 5.6 5.6 5.7 5.5 5.5 5.5 5.5 5.6 5.6 5.7 5.8 6.0 6.2 6.6 6.8 7.1 7.5 7.4 7.7 8.1 8.6 8.9 8.8 8.8 8.8 9.0 8.7 9.0 9.2 8.4 8.0 8.2 8.2 8.2 7.8 7.6 7.0 7.5 7.1 6.6 6.7 6.7 6.5
5.7 5.8 5.7 5.5 5.4 5.5 5.4 5.4 5.4 5.4 5.5 5.7 5.9 5.9 6.0 6.4 6.5 6.7 7.2 7.5 7.7 8.0 8.7 9.0 8.9 8.8 8.8 9.1 8.7 8.4 8.7 8.2 8.5 8.4 8.4 8.4 8.0 7.7 7.2 7.2 7.3 7.2 7.0 6.6 6.5
5.7 5.6 5.7 5.7 5.4 5.4 5.4 5.4 5.4 5.4 5.5 5.7 5.9 6.1 6.1 6.3 6.3 6.5 6.9 7.3 7.7 8.0 8.4 9.0 8.9 8.6 8.8 9.1 8.7 7.7 8.5 8.3 8.5 8.4 8.6 8.7 8.4 7.8 7.4 7.4 7.0 7.2 7.2 6.9 6.6
6.0 5.7 5.6 5.6 5.6 5.4 5.4 5.4 5.3 5.4 5.5 5.6 5.9 6.2 6.3 6.1 6.3 6.5 6.7 7.4 7.6 8.0 8.4 8.8 8.6 8.6 8.8 9.0 8.9 8.5 7.9 7.9 8.3 8.5 8.7 8.2 8.2 8.1 8.2 7.4 7.1 6.9 7.2 7.1 6.8
6.1 6.2 5.9 5.7 5.8 5.6 5.4 5.4 5.3 5.4 5.4 5.6 5.8 6.2 6.3 6.6 6.6 6.7 6.8 7.3 7.7 7.9 8.3 8.1 8.3 8.5 8.8 8.9 8.8 8.3 8.0 7.9 8.3 8.5 8.5 8.4 8.5 8.4 8.3 8.3 7.6 7.1 7.0 7.2 7.0
5.9 6.0 6.3 5.9 5.9 5.8 5.5 5.4 5.2 5.2 5.4 5.5 5.8 6.1 6.3 6.7 6.6 6.3 7.0 7.2 7.4 7.8 7.9 7.8 8.1 8.4 8.7 8.9 8.7 8.3 7.7 8.1 8.3 8.5 9.0 8.6 8.5 8.3 8.5 8.5 8.3 7.9 7.6 7.2 7.0
5.9 5.9 6.0 6.3 6.2 5.9 5.6 5.5 5.0 4.9 5.2 5.7 5.9 6.1 6.2 6.0 6.1 6.3 6.9 7.2 7.4 7.3 7.2 7.3 7.9 8.2 8.5 8.6 8.8 8.5 8.4 8.6 9.0 8.8 8.6 8.8 8.6 8.7 8.7 8.5 8.5 8.3 8.0 7.8 7.4
5.8 5.9 5.9 6.0 6.5 6.2 5.5 5.3 5.2 5.2 5.5 5.9 6.2 6.6 6.1 6.2 6.2 6.5 6.7 7.0 6.9 6.7 6.9 7.2 7.7 7.9 8.6 8.9 8.8 9.1 8.8 8.6 8.8 8.9 8.5 9.0 8.8 8.6 8.7 8.4 8.3 8.6 8.6 8.1 7.9
5.8 5.8 5.9 5.9 6.3 6.2 5.7 5.1 5.3 5.5 6.0 5.9 6.1 6.5 6.2 6.3 6.4 6.2 6.1 6.4 6.7 7.0 6.9 7.1 7.8 8.7 8.8 8.7 8.9 8.9 9.0 9.4 9.3 9.1 8.6 8.4 8.8 8.7 8.7 8.9 8.8 8.7 8.8 8.5 8.0
5.5 5.9 5.9 5.7 6.1 6.0 5.6 5.5 5.2 5.4 5.6 6.6 6.0 6.5 6.1 6.1 6.8 6.6 6.6 6.6 6.9 7.1 7.1 7.5 8.4 8.8 8.7 9.0 8.9 8.9 9.0 9.3 9.4 9.3 8.7 8.5 8.5 8.5 8.2 8.4 8.3 8.3 8.4 8.6 8.3
5.3 5.3 5.8 5.7 5.8 5.7 5.5 5.6 5.5 5.5 5.0 6.6 6.8 7.0 6.3 6.2 6.5 6.6 7.0 6.8 6.7 7.0 7.2 7.6 8.4 8.8 8.7 8.7 8.8 9.0 9.1 9.1 8.9 8.4 8.1 8.1 8.0 8.2 8.4 8.4 8.3 8.2 8.1 8.3 8.1
5.0 5.2 5.3 5.7 5.6 5.4 5.7 5.5 5.4 5.4 4.2 6.8 6.9 6.6 6.7 6.4 7.0 6.7 7.1 6.5 6.9 7.3 6.8 7.9 8.2 8.2 8.1 8.5 8.7 8.9 9.4 9.0 8.9 8.5 8.3 8.1 8.5 8.8 7.9 8.1 8.7 8.4 8.2 8.3 8.3
4.8 4.6 5.0 5.2 5.7 5.0 5.5 5.5 5.1 5.0 4.4 6.5 6.6 6.9 6.9 6.4 7.0 7.0 6.8 6.4 7.1 6.7 6.9 7.7 8.1 8.4 8.4 9.0 8.9 9.2 9.0 8.7 8.8 8.7 8.4 9.1 8.7 8.6 8.5 9.0 9.4 8.7 8.5 8.6 8.7
4.5 4.4 4.5 5.0 5.5 4.7 5.4 5.2 4.9 4.5 6.1 7.1 7.2 6.7 6.9 6.8 7.1 6.9 6.8 6.2 6.5 6.2 6.1 7.2 7.8 8.0 8.1 8.6 8.7 8.5 8.7 8.4 7.9 7.6 7.4 9.4 8.4 8.6 9.2 9.1 9.0 9.1 9.2 9.0 8.8
4.0 4.2 4.3 5.3 4.6 4.5 4.9 4.8 4.3 4.4 5.9 7.1 7.3 7.4 6.8 6.9 7.1 7.1 7.1 6.7 6.7 6.8 6.9 6.7 7.1 7.6 7.8 7.6 8.6 8.7 8.9 8.4 7.5 6.5 8.0 8.4 8.2 8.8 9.4 9.1 8.9 9.1 9.3 9.1 8.9
4.0 4.1 4.7 4.4 4.3 4.1 4.4 4.2 3.9 4.6 6.1 7.3 7.7 7.6 7.4 7.2 7.2 6.9 7.0 7.1 7.3 6.9 6.7 7.0 7.0 7.9 8.3 8.5 8.6 8.6 8.3 8.7 9.1 8.2 7.5 8.5 9.3 9.1 9.4 9.4 9.3 9.2 9.2 9.0 9.1
3.9 4.3 4.2 4.4 4.2 4.2 4.1 3.8 4.1 4.7 6.2 7.0 7.0 7.7 7.6 7.6 7.3 7.4 7.4 7.2 7.3 7.4 7.3 7.3 7.3 8.0 8.4 8.5 8.6 8.4 8.5 8.6 8.6 6.6 7.1 8.3 8.8 8.8 9.1 9.0 9.4 9.5 9.5 9.3 9.2
3.4 4.1 4.2 4.4 4.1 4.0 3.7 3.5 4.1 4.6 6.2 6.7 7.0 7.5 7.6 7.5 7.6 7.4 7.2 7.1 7.7 7.8 7.8 7.4 7.4 8.0 8.4 8.4 8.5 8.6 8.6 8.3 8.7 8.5 6.7 6.1 7.8 9.0 8.9 9.0 9.1 9.6 9.6 9.3 9.0
3.0 3.6 4.1 4.1 3.9 3.7 3.7 3.7 3.8 5.1 6.4 6.1 6.4 6.6 7.5 7.5 7.1 7.1 6.9 6.9 7.4 7.9 8.2 7.9 7.7 7.4 8.1 8.5 8.9 9.2 9.0 8.6 9.0 7.9 8.3 8.1 8.1 9.2 9.3 9.2 9.1 9.5 9.5 9.2 8.9
3.3 4.2 3.6 3.3 3.3 3.4 3.4 3.5 3.9 4.7 6.2 6.1 5.9 6.5 7.4 7.2 7.1 7.1 7.3 7.6 7.8 8.0 7.9 8.2 8.0 7.7 7.8 8.3 8.5 8.6 8.6 8.5 8.5 9.1 8.8 7.7 8.3 8.8 9.3 9.2 8.9 9.2 9.4 9.2 9.1
4.1 4.7 4.9 4.1 3.6 3.4 3.3 3.0 3.1 4.0 5.6 5.5 5.7 6.1 6.5 6.9 7.0 7.1 7.3 8.1 8.4 8.2 8.1 8.5 8.4 8.3 7.4 7.8 8.2 8.4 8.9 8.6 9.1 8.9 9.0 8.8 9.1 9.0 9.0 9.2 9.0 9.0 8.9 9.0 9.0
5.4 5.3 5.7 5.0 3.8 3.7 3.7 3.5 4.0 4.2 4.9 5.0 4.9 5.4 6.0 6.3 6.8 6.6 7.3 7.8 8.5 8.5 8.5 8.3 8.1 8.6 8.5 8.5 8.7 8.5 9.1 9.0 9.1 9.1 9.1 8.7 9.3 9.4 9.2 9.0 9.1 9.2 8.8 8.8 8.8
6.1 6.1 6.0 6.3 5.9 4.8 4.4 4.6 4.4 4.6 5.1 5.2 4.9 5.0 5.6 5.6 6.3 7.3 7.6 7.9 8.2 8.6 8.8 8.9 8.4 8.6 8.4 8.5 8.9 8.8 9.0 9.3 9.1 9.1 9.0 9.2 9.3 9.5 9.5 9.3 9.1 9.1 9.2 8.7 8.7
6.1 6.2 6.1 6.3 5.9 6.0 5.6 5.3 4.8 4.8 5.4 5.5 5.1 5.5 5.6 6.1 6.5 7.1 7.8 8.0 8.1 8.3 8.1 8.6 8.6 8.4 7.7 8.6 8.9 8.2 8.9 9.0 9.3 9.1 9.1 8.9 9.4 9.5 9.5 9.3 9.2 9.1 9.1 9.0 8.8
Wind_Speed
23 23 22 22 21 21 21 22 22 22 21 21 20 18 18 19 20 2 7 7 6 21 7 7 2 4 2 3 4 3 3 2 7 8 6 8 7 4 9 11 2 4 8 10 14
27 25 24 24 23 22 21 21 21 21 22 20 18 17 16 16 4 8 8 14 14 16 5 8 5 7 2 3 2 3 4 7 7 7 10 14 9 12 6 7 9 14 14 15 16
26 28 27 26 25 25 24 22 22 21 21 19 16 15 13 10 4 9 2 22 18 16 3 3 3 4 3 5 5 6 6 7 8 7 13 15 11 4 17 3 10 19 19 17 17
25 26 28 28 27 26 25 25 23 22 20 18 14 13 11 2 5 2 5 7 17 9 3 2 3 3 2 1 3 4 5 8 10 10 14 17 8 12 4 8 16 16 17 15 18
27 27 27 29 29 28 27 25 24 22 20 17 12 7 4 2 10 2 8 11 8 8 5 4 3 4 2 3 7 5 6 12 18 17 14 13 13 7 6 17 18 17 16 16 15
28 28 28 29 30 29 29 27 25 23 19 14 10 1 1 4 5 2 8 7 6 6 5 4 4 5 1 2 3 5 7 14 17 14 14 14 8 5 7 18 19 19 17 16 15
28 29 29 30 30 31 30 30 28 24 18 10 6 3 1 14 3 2 6 5 5 6 5 4 2 3 2 7 2 2 7 5 11 10 6 13 4 8 18 17 19 18 17 16 16
28 29 30 30 31 31 32 33 32 25 11 6 5 2 7 5 6 4 2 1 3 3 3 2 5 1 3 3 6 6 5 5 4 6 11 5 5 9 18 18 18 18 15 16 16
29 30 31 32 32 33 32 34 28 9 4 10 3 2 9 5 2 7 5 3 5 3 1 2 4 3 3 4 5 7 5 3 0 6 5 4 4 14 19 18 17 17 16 16 15
30 31 33 33 34 35 35 28 10 3 3 4 4 2 5 4 4 4 5 5 3 6 3 4 3 3 3 4 3 6 5 1 7 11 4 4 5 20 20 19 19 18 16 16 15
30 32 34 35 35 35 15 3 4 3 1 6 6 5 8 6 3 4 6 6 0 3 5 4 4 7 11 7 4 4 5 6 6 4 1 8 9 22 20 16 16 16 17 16 15
31 32 34 37 36 30 2 4 6 2 9 9 17 11 13 3 4 4 7 6 5 5 3 3 8 7 6 7 4 3 3 6 6 8 9 7 5 19 20 23 21 20 17 16 12
31 32 33 37 43 2 2 4 6 5 3 8 8 7 6 9 9 9 10 6 4 5 5 7 4 8 6 3 2 4 5 5 8 4 4 10 2 9 14 9 14 15 13 12 15
30 32 31 39 2 5 4 4 10 3 3 7 5 9 7 9 5 9 10 7 4 11 5 6 6 2 2 4 6 4 6 5 7 7 6 3 7 8 15 16 13 16 15 14 15
30 31 28 20 6 4 4 12 7 2 4 5 5 1 6 12 5 8 6 4 8 6 7 9 5 5 5 10 6 13 7 6 6 7 4 3 4 6 12 11 19 20 18 18 18
31 31 29 3 2 8 15 10 2 4 7 6 3 5 6 4 6 3 6 4 5 4 1 8 1 6 9 5 12 2 1 7 5 3 1 8 7 4 11 26 26 16 19 20 18
33 36 24 7 5 3 5 4 2 5 4 6 3 1 6 7 9 7 12 12 7 7 7 5 7 5 2 6 2 5 6 4 2 2 6 7 3 9 16 21 25 26 24 21 19
37 38 9 5 17 10 2 4 7 8 10 3 2 4 4 4 8 6 12 13 4 6 4 6 6 7 3 10 7 7 9 6 5 4 5 2 7 8 12 19 24 22 26 23 19
36 4 4 5 15 5 4 5 8 7 6 4 4 2 4 4 5 6 10 18 14 9 9 7 7 5 5 8 11 4 3 6 7 3 1 3 6 7 2 9 11 17 18 20 21
7 5 4 2 16 3 3 7 6 5 1 2 4 2 2 1 4 4 8 10 7 16 4 7 2 6 6 3 3 8 7 2 3 5 5 5 4 6 6 9 5 10 19 18 16
3 4 4 13 4 3 5 7 6 11 4 1 5 3 1 3 3 4 4 4 14 11 16 7 4 7 2 6 9 1 2 5 5 5 7 4 7 8 10 11 12 14 15 14 13
3 4 1 4 2 1 2 6 5 5 1 5 1 5 2 2 3 6 8 6 5 7 12 10 7 7 18 5 3 5 7 7 6 5 2 5 7 5 10 7 7 10 11 13 18
4 3 6 3 3 3 5 5 5 6 5 6 6 5 2 4 1 6 7 8 9 9 11 8 5 3 9 6 3 5 5 5 3 3 8 6 6 3 5 7 5 8 8 8 7
2 4 4 3 1 2 4 4 5 5 14 8 4 3 4 5 7 7 4 5 4 3 13 10 5 13 17 13 6 5 5 6 7 5 5 7 6 3 6 10 5 5 6 8 9
1 4 2 4 3 7 4 3 3 3 3 4 4 10 10 7 8 11 8 8 8 8 5 12 15 7 15 21 8 9 8 9 8 7 9 11 10 10 14 12 16 10 8 8 7
2 2 3 4 4 5 4 4 5 6 4 4 2 8 7 9 8 3 7 7 8 5 4 4 6 18 18 17 11 11 11 9 10 3 9 3 6 8 8 8 7 14 13 11 10
3 2 2 3 5 3 2 5 8 7 6 7 6 7 11 8 10 16 15 12 8 5 4 4 6 5 14 15 7 4 17 12 7 5 9 6 11 7 5 10 15 11 11 13 9
Wind_Direction
359 357 354 352 350 346 344 341 338 337 334 331 331 328 328 327 316 209 245 212 173 176 152 113 154 228 45 278 212 135 60 137 188 169 159 149 152 150 95 133 162 156 135 141 143
354 354 352 350 347 345 342 339 336 333 331 330 328 325 326 333 314 271 218 205 194 179 176 180 151 160 182 240 284 121 136 212 191 169 160 161 167 132 125 129 101 102 115 135 140
355 350 349 347 345 343 340 337 334 330 329 327 326 322 324 329 329 250 295 217 184 180 236 172 129 179 222 171 215 190 201 168 168 159 153 146 148 105 133 110 157 148 148 149 150
354 350 345 344 341 340 337 334 330 327 325 322 321 318 325 303 256 246 331 224 178 152 203 190 110 125 258 281 262 255 232 168 143 140 152 155 122 137 206 158 149 151 153 153 161
351 348 345 340 338 335 333 330 324 323 320 315 312 313 323 346 251 294 52 101 122 141 181 158 123 151 287 286 314 81 352 128 139 151 154 136 136 129 120 137 144 150 159 170 174
347 345 343 340 335 331 327 324 320 319 314 304 297 249 156 265 253 189 120 129 131 144 164 141 207 191 209 277 47 319 42 130 138 149 143 125 132 89 152 148 152 161 172 175 185
345 341 339 337 334 329 326 320 318 316 305 283 262 224 194 236 26 89 130 161 169 159 131 214 132 26 41 330 148 297 71 53 137 137 113 117 28 151 156 161 160 173 178 184 190
341 339 336 334 330 327 322 318 318 314 287 221 196 239 248 249 310 189 183 151 161 145 192 125 152 305 174 265 29 76 56 120 236 175 160 99 205 165 162 166 176 180 189 192 196
339 337 335 333 330 326 321 316 316 334 154 156 129 196 265 305 201 221 158 208 145 140 271 262 148 198 10 99 46 5 177 127 357 231 140 83 148 173 174 177 183 193 193 196 200
338 335 334 333 329 325 322 308 284 338 187 197 253 337 276 308 226 199 178 157 144 130 187 162 78 115 32 84 188 137 144 214 173 214 187 198 197 167 181 185 190 196 201 200 198
336 334 332 332 329 326 332 18 14 351 194 224 216 251 293 286 276 206 150 128 167 112 162 185 123 195 204 184 145 119 158 175 252 246 104 211 157 176 185 194 198 198 199 202 202
334 334 332 330 327 327 315 46 91 207 300 239 249 248 253 57 305 311 111 157 140 192 154 48 220 198 151 161 176 192 256 267 230 193 169 176 221 181 184 200 198 200 203 203 195
332 332 333 330 323 16 254 238 46 22 226 280 206 207 201 150 205 245 160 145 150 185 189 178 203 137 163 157 177 221 200 244 218 35 71 114 26 194 211 212 215 218 213 209 193
330 329 333 336 26 328 283 334 320 212 3 270 228 252 162 138 255 207 172 145 213 195 153 235 241 199 106 255 129 281 205 260 253 166 195 164 222 221 205 212 219 219 210 206 201
326 326 326 333 288 305 282 322 313 131 322 247 235 239 196 158 148 222 161 84 175 174 128 237 185 180 193 230 144 236 139 215 248 163 109 208 84 248 153 217 224 219 212 209 205
322 319 324 338 274 248 311 302 70 55 238 300 242 184 137 191 170 89 142 102 157 131 251 226 179 169 207 236 186 303 20 36 64 110 252 219 152 245 182 210 224 219 217 213 203
319 313 306 248 232 130 310 17 73 182 250 251 266 152 196 170 173 170 172 181 160 158 231 348 263 253 151 313 91 105 65 323 341 10 207 162 119 237 209 213 213 207 215 210 203
320 311 270 210 232 281 3 61 212 191 222 290 331 27 188 159 203 164 165 193 208 115 137 169 291 183 183 190 200 178 162 170 197 207 228 75 202 245 219 223 217 211 209 202 200
323 313 284 248 192 150 108 189 209 213 201 284 6 284 224 218 168 141 181 197 195 176 171 155 257 272 197 199 148 237 178 199 113 8 31 217 286 322 175 258 241 216 204 203 202
321 327 270 283 159 119 114 226 220 236 346 53 180 153 201 92 113 171 175 198 209 193 150 205 256 211 244 153 247 165 167 93 0 157 236 287 279 234 307 282 271 199 204 203 202
3 340 282 150 143 42 198 218 223 266 358 137 218 231 138 6 104 148 241 256 201 195 191 157 147 270 86 186 199 203 187 46 121 136 176 217 258 218 221 230 205 202 198 189 187
2 322 278 345 42 207 209 189 233 239 97 255 215 209 212 165 246 208 205 192 173 157 173 207 183 226 240 231 224 164 204 168 149 226 160 169 262 215 241 207 190 203 190 192 203
321 257 304 107 221 244 276 268 236 223 216 197 219 183 168 151 329 225 223 222 230 192 191 175 219 242 293 309 328 209 194 149 105 70 189 176 260 339 200 165 221 192 175 182 159
332 318 312 33 344 28 353 263 244 239 257 249 236 282 294 265 211 254 254 290 351 282 216 157 159 195 226 228 167 202 192 175 153 171 174 208 221 246 212 178 199 182 165 172 175
229 258 278 329 322 328 277 257 251 268 305 214 234 209 206 234 207 233 237 270 284 273 241 171 223 186 224 222 181 189 192 170 182 198 187 230 198 217 201 194 192 172 162 142 173
258 329 346 287 284 315 278 40 37 0 306 303 243 335 281 223 208 252 201 199 242 297 231 157 237 211 230 227 212 210 229 220 220 176 252 185 229 222 198 82 136 177 167 168 175
259 297 302 284 311 348 264 359 337 357 275 285 334 313 290 266 253 242 235 239 230 229 285 192 153 133 230 220 195 272 228 209 197 178 167 173 226 154 159 170 180 181 178 165 169